New Orleans Lakefront, LA

10:24 PM CST on November 19, 2019 (GMT -0600)
Lakefront

Weather History for KNEW - September, 2019

Change the Weather History Date:

Friday, September 20, 2019

  Actual Average Record
Temperature  
Mean Temperature 86 °F 79 °F  
Max Temperature 93 °F 87 °F 96 °F (2005)
Min Temperature 78 °F 71 °F 52 °F (1981)
Degree Days  
Heating Degree Days 0 0  
Month to date heating degree days 0 0  
Since 1 July heating degree days 0 0  
Cooling Degree Days 21 14  
Month to date cooling degree days 430 318  
Year to date cooling degree days 3071 2564  
Growing Degree Days 31 (Base 50)    
Moisture  
Dew Point 71 °F    
Average Humidity 62    
Maximum Humidity 79    
Minimum Humidity 44    
Precipitation  
Precipitation T in 0.16 in 2.78 in (2008)
Month to date precipitation 0.02 3.59  
Year to date precipitation 46.78 47.80  
Snow  
Snow 0.00 in - - ()
Month to date snowfall 0.0  
Since 1 July snowfall 0.0  
Since 1 September snowfall 0.0  
Snow Depth 0.00 in    
Sea Level Pressure  
Sea Level Pressure 30.06 in    
Wind  
Wind Speed 12 mph (ESE)    
Max Wind Speed 22 mph    
Max Gust Speed 29 mph    
Visibility 8 miles    
Events Fog , Rain , Thunderstorm    
T = Trace of Precipitation, MM = Missing Value Source: NWS Daily Summary

Daily Weather History Graph

Daily Weather History Graph

Search for Another Location

Airport or City:

Astronomy

Sep. 20, 2019 Rise Set
Actual Time 6:47 AM CDT 6:59 PM CDT
Civil Twilight 6:23 AM CDT 7:23 PM CDT
Nautical Twilight 5:55 AM CDT 7:51 PM CDT
Astronomical Twilight 5:27 AM CDT 8:19 PM CDT
Moon 11:14 PM CDT 12:27 PM CDT
Length of Visible Light 12h 59m
Length of Day
12h 12m
Waning Gibbous, 65% of the Moon is Illuminated
Sep 20
Waning Gibbous
Sep 21
Last Quarter
Sep 28
New
Oct 5
First Quarter
Oct 13
Full

Hourly Weather History & Observations

Time (CDT) Temp. Heat Index Dew Point Humidity Pressure Visibility Wind Dir Wind Speed Gust Speed Precip Events Conditions
12:28 AM 82.0 °F 88.6 °F 75.0 °F 79% 30.03 in 10.0 mi ESE 10.4 mph - N/A Thunderstorm Clear
12:53 AM 79.0 °F - 73.9 °F 84% 30.03 in 10.0 mi ENE 20.7 mph 31.1 mph 0.00 in Rain , Thunderstorm Light Rain
12:55 AM 80.1 °F 84.5 °F 73.9 °F 81% 30.04 in 10.0 mi ENE 19.6 mph - 0.00 in Rain , Thunderstorm Light Thunderstorms and Rain
1:07 AM 78.1 °F - 73.0 °F 84% 30.04 in 1.8 mi ENE 20.7 mph 32.2 mph 0.13 in Rain , Thunderstorm Heavy Thunderstorms and Rain
1:23 AM 75.9 °F - 73.0 °F 91% 30.06 in 0.5 mi ESE 20.7 mph 38.0 mph 0.89 in Fog , Rain , Thunderstorm Heavy Thunderstorms and Rain
1:27 AM 75.0 °F - 73.0 °F 94% 30.06 in 0.2 mi ESE 17.3 mph 38.0 mph 1.20 in Fog , Rain , Thunderstorm Heavy Thunderstorms and Rain
1:34 AM 75.0 °F - 72.0 °F 90% 30.05 in 0.8 mi SE 5.8 mph 17.3 mph 1.42 in Rain , Thunderstorm Heavy Thunderstorms and Rain
1:37 AM 75.0 °F - 72.0 °F 90% 30.05 in 1.0 mi South 4.6 mph 17.3 mph 1.44 in Rain , Thunderstorm Heavy Thunderstorms and Rain
1:44 AM 75.0 °F - 72.0 °F 90% 30.04 in 3.0 mi SSE 5.8 mph - 1.45 in Rain , Thunderstorm Thunderstorms and Rain
1:51 AM 75.2 °F - 71.6 °F 89% 30.04 in 8.0 mi SE 6.9 mph - 1.45 in Rain Light Rain
1:53 AM 75.9 °F - 72.0 °F 87% 30.03 in 9.0 mi SE 5.8 mph - 1.45 in Rain Light Rain
2:53 AM 78.1 °F - 75.0 °F 90% 30.01 in 9.0 mi SE 8.1 mph - 0.00 in   Clear
3:53 AM 75.9 °F - 72.0 °F 87% 30.01 in 10.0 mi SSE 13.8 mph - N/A   Partly Cloudy
4:53 AM 77.0 °F - 73.0 °F 88% 30.03 in 9.0 mi SE 5.8 mph - N/A   Clear
5:53 AM 78.1 °F - 72.0 °F 81% 30.04 in 10.0 mi SE 6.9 mph - N/A   Clear
6:53 AM 79.0 °F - 72.0 °F 79% 30.04 in 10.0 mi ESE 6.9 mph - N/A   Clear
7:53 AM 82.0 °F 86.7 °F 72.0 °F 71% 30.06 in 10.0 mi ESE 10.4 mph - N/A   Scattered Clouds
8:53 AM 84.0 °F 87.0 °F 68.0 °F 58% 30.08 in 10.0 mi ESE 16.1 mph 24.2 mph N/A   Partly Cloudy
9:53 AM 84.9 °F 88.8 °F 69.1 °F 59% 30.10 in 10.0 mi East 17.3 mph - N/A   Partly Cloudy
10:53 AM 86.0 °F 90.7 °F 70.0 °F 59% 30.10 in 10.0 mi ESE 17.3 mph 25.3 mph 0.00 in   Mostly Cloudy
11:53 AM 86.0 °F 90.1 °F 69.1 °F 57% 30.11 in 10.0 mi East 18.4 mph - N/A   Partly Cloudy
12:53 PM 87.1 °F 91.3 °F 69.1 °F 55% 30.09 in 10.0 mi ESE 18.4 mph 26.5 mph N/A   Partly Cloudy
1:53 PM 87.1 °F 89.9 °F 66.9 °F 51% 30.08 in 10.0 mi East 18.4 mph 25.3 mph N/A   Partly Cloudy
2:53 PM 87.1 °F 92.8 °F 71.1 °F 59% 30.07 in 10.0 mi East 16.1 mph - N/A   Scattered Clouds
3:53 PM 86.0 °F 91.5 °F 71.1 °F 61% 30.06 in 10.0 mi East 17.3 mph - N/A   Mostly Cloudy
4:53 PM 84.0 °F 89.0 °F 71.1 °F 65% 30.06 in 10.0 mi East 21.9 mph - N/A   Mostly Cloudy
5:53 PM 82.9 °F 87.5 °F 71.1 °F 67% 30.07 in 10.0 mi East 17.3 mph 26.5 mph N/A   Scattered Clouds
6:53 PM 82.9 °F 87.5 °F 71.1 °F 67% 30.07 in 10.0 mi ESE 16.1 mph - N/A   Partly Cloudy
7:53 PM 82.0 °F 85.9 °F 70.0 °F 67% 30.08 in 10.0 mi ESE 12.7 mph - N/A   Partly Cloudy
8:53 PM 81.0 °F 84.4 °F 70.0 °F 69% 30.09 in 10.0 mi ESE 10.4 mph - N/A   Clear
9:53 PM 81.0 °F 84.4 °F 70.0 °F 69% 30.10 in 10.0 mi ESE 13.8 mph - N/A   Clear
10:53 PM 81.0 °F 84.4 °F 70.0 °F 69% 30.11 in 10.0 mi ESE 10.4 mph - N/A   Clear